This is the latest recevied weather packets stored in our database for station/object N3FYI-5. If no packets are shown the sender has not sent any weather packets the latest 10 day(s).
| Time | Temp. | Humidity | Pressure | Rain* | Wind** | Luminosity | Snow |
|---|---|---|---|---|---|---|---|
| 1777729837 | 4.44° C | 69% | 1023.9 hPa | 0 mm | - | - | - |
| 1777729350 | 3.89° C | 67% | 1024 hPa | 0 mm | - | - | - |
| 1777728881 | 3.89° C | 64% | 1024.1 hPa | 0 mm | - | - | - |
| 1777728394 | 3.89° C | 64% | 1024.2 hPa | 0 mm | - | - | - |
| 1777727910 | 3.33° C | 71% | 1024.3 hPa | 0 mm | - | - | - |
| 1777727433 | 3.33° C | 75% | 1024.2 hPa | 0 mm | - | - | - |
| 1777726958 | 2.78° C | 78% | 1024.4 hPa | 0 mm | - | - | - |
| 1777726476 | 2.22° C | 77% | 1024.3 hPa | 0 mm | - | - | - |
| 1777725729 | 1.67° C | 79% | 1024.4 hPa | 0 mm | - | - | - |
| 1777725249 | 1.11° C | 81% | 1024.4 hPa | 0 mm | - | - | - |
| 1777724769 | 1.11° C | 83% | 1024.2 hPa | 0 mm | - | - | - |
| 1777724288 | 0.56° C | 85% | 1024.2 hPa | 0 mm | - | - | - |
| 1777723811 | 0.56° C | 86% | 1024.3 hPa | 0 mm | - | - | - |
| 1777723328 | 0° C | 87% | 1024.3 hPa | 0 mm | - | - | - |
| 1777722848 | 0° C | 88% | 1024.4 hPa | 0 mm | - | - | - |
| 1777722368 | -0.56° C | 87% | 1024.2 hPa | 0 mm | - | - | - |
| 1777721894 | -0.56° C | 85% | 1024.3 hPa | 0 mm | - | - | - |
| 1777721411 | -0.56° C | 83% | 1024.4 hPa | 0 mm | - | - | - |
| 1777720928 | -1.11° C | 78% | 1024.4 hPa | 0 mm | - | - | - |
| 1777720450 | -1.11° C | 77% | 1024.3 hPa | 0 mm | - | - | - |
| 1777719968 | -1.67° C | 78% | 1024.3 hPa | 0 mm | - | - | - |
| 1777719488 | -1.67° C | 77% | 1024.2 hPa | 0 mm | - | - | - |
| 1777719010 | -1.67° C | 76% | 1024.2 hPa | 0 mm | - | - | - |
| 1777718528 | -1.67° C | 74% | 1023.9 hPa | 0 mm | - | - | - |
| 1777718048 | -1.67° C | 73% | 1023.8 hPa | 0 mm | - | - | - |
* Rain latest hour (hover to see other rain measurements)
** Current wind speed in m/s (hover to see current wind gust speed)